www.pogodaiklimat.ru

Погода и климат >> Архив погоды >> Великобритания >> Лондон


АРХИВ ПОГОДЫ в Лондоне

Время (UTC), дата Ветер
(напр.,м/с)
 
Видим.   Явления Облачность Т
(С)
Тd
(С)
f
(%)
Тe
(С)
Тes
(С)
Комфортность P
(гПа)
Po
(гПа)
Тmin
(С)
Tmax
(С)
R
(мм)
R24
(мм)
S
(см)
19 16.09 С 3 21 км н/о +16.9 +13.4 80 +17 +17 тепло 1022.7 1019.7
20 16.09 С 2 24 км н/о +16.8 +13.2 79 +17 +17 тепло 1023.1 1020.1
21 16.09 СВ 2 30 км н/о +16.5 +12.6 78 +17 +17 тепло 1023.3 1020.3
22 16.09 С 2 30 км н/о +16.2 +12.4 78 +16 +16 тепло 1023.4 1020.4
23 16.09 С 2 30 км н/о +15.9 +12.2 79 +16 +16 тепло 1023.3 1020.2
00 17.09 С 2 18 км н/о +14.7 +12.0 84 +15 +15 тепло 1023.4 1020.3
01 17.09 СЗ 2 26 км н/о +13.7 +10.6 82 +13 +13 тепло 1023.6 1020.6
02 17.09 С 3 30 км н/о +13.4 +8.9 74 +12 +12 по сезону 1023.7 1020.7
03 17.09 СЗ 3 30 км н/о +12.5 +8.1 75 +11 +11 по сезону 1023.7 1020.7
04 17.09 СЗ 2 30 км н/о +11.0 +7.9 81 +10 +10 по сезону 1023.8 1020.8
05 17.09 СЗ 1 30 км н/о +10.4 +8.0 85 +10 +10 по сезону 1024.0 1020.9
06 17.09 СЗ 2 27 км н/о +9.6 +7.6 87 +8 +8 прохладно 1024.3 1021.2 +9.6
07 17.09 СЗ 2 24 км н/о +10.4 +8.0 85 +9 +9 прохладно 1025.0 1021.9
08 17.09 С 2 28 км н/о +12.4 +7.9 74 +12 +12 по сезону 1025.3 1022.3
09 17.09 С 3 35 км н/о +14.2 +7.6 64 +14 +14 по сезону 1025.6 1022.5
10 17.09 С 3 40 км н/о +16.0 +7.3 56 +16 +16 по сезону 1025.4 1022.4
11 17.09 С 4 40 км н/о +16.7 +6.2 50 +16 +16 по сезону 1025.4 1022.4
12 17.09 С 4 40 км н/о +18.0 +5.4 43 +18 +18 по сезону 1025.4 1022.4
13 17.09 С 4 45 км н/о +18.5 +4.5 40 +19 +19 тепло 1025.2 1022.2
14 17.09 С 4 45 км н/о +19.2 +5.1 39 +20 +20 тепло 1025.2 1022.2
15 17.09 СВ 4 50 км н/о +19.8 +5.2 38 +21 +21 комфорт 1025.3 1022.3
16 17.09 С 4 45 км н/о +19.1 +4.6 38 +20 +20 тепло 1025.1 1022.1
17 17.09 С 4 35 км н/о +18.3 +5.6 43 +18 +18 тепло 1025.7 1022.7
18 17.09 СВ 4 35 км н/о +17.1 +5.6 47 +17 +17 по сезону 1025.9 1022.9 +20.0
19 17.09 СВ 3 27 км н/о +15.7 +5.8 52 +15 +15 тепло 1026.5 1023.4
20 17.09 СВ 3 30 км н/о +14.7 +6.1 56 +14 +14 по сезону 1026.9 1023.8
21 17.09 СВ 3 30 км н/о +13.9 +5.9 58 +13 +13 по сезону 1027.7 1024.7
22 17.09 СВ 3 30 км н/о +13.0 +5.4 60 +12 +12 тепло 1028.3 1025.2
23 17.09 СВ 3 30 км н/о +12.2 +5.3 63 +11 +11 по сезону 1028.5 1025.4
00 18.09 СВ 2 27 км н/о +11.0 +5.2 67 +10 +10 по сезону 1028.6 1025.6
01 18.09 С 1 27 км н/о +10.0 +5.3 73 +10 +10 по сезону 1028.7 1025.6
02 18.09 С 1 25 км н/о +9.4 +5.3 76 +9 +9 по сезону 1028.7 1025.6
03 18.09 С 2 24 км н/о +8.5 +5.1 79 +7 +7 прохладно 1028.9 1025.8
04 18.09 С 2 25 км н/о +8.2 +5.0 80 +7 +7 по сезону 1028.9 1025.7
05 18.09 С 2 24 км н/о +8.2 +5.0 80 +7 +7 по сезону 1029.2 1026.1
06 18.09 СВ 2 23 км н/о +7.9 +4.8 81 +6 +6 прохладно 1029.6 1026.5 +7.8
07 18.09 СВ 2 24 км н/о +9.4 +5.6 77 +8 +8 прохладно 1029.8 1026.7
08 18.09 СВ 2 24 км н/о +11.9 +6.2 68 +11 +11 по сезону 1030.3 1027.2
09 18.09 СВ 3 24 км н/о +14.1 +6.2 59 +13 +13 по сезону 1030.6 1027.5
10 18.09 СВ 2 29 км н/о +16.1 +5.1 48 +16 +16 по сезону 1030.5 1027.5
11 18.09 СВ 3 30 км н/о +17.2 +4.5 43 +17 +17 по сезону 1030.4 1027.4
12 18.09 СВ 2 30 км н/о +18.6 +4.6 40 +19 +19 тепло 1030.0 1027.0
13 18.09 СВ 2 30 км н/о +19.0 +4.7 39 +20 +20 тепло 1029.6 1026.6
14 18.09 В 2 30 км н/о +19.1 +4.4 38 +20 +20 тепло 1029.4 1026.4
15 18.09 С 3 30 км н/о +19.6 +3.9 35 +20 +20 тепло 1029.0 1026.0
16 18.09 СВ 3 35 км н/о +19.7 +4.6 37 +21 +21 комфорт 1028.7 1025.7
17 18.09 С 3 35 км н/о +19.1 +4.5 38 +20 +20 тепло 1028.7 1025.7
18 18.09 СВ 3 30 км н/о +18.0 +5.3 43 +18 +18 тепло 1028.9 1025.9 +20.0
19 18.09 СВ 2 28 км н/о +16.6 +5.6 48 +17 +17 тепло 1029.4 1026.4
20 18.09 СВ 2 27 км н/о +15.8 +6.1 52 +16 +16 тепло 1029.8 1026.8
21 18.09 В 3 30 км н/о +12.9 +6.9 67 +12 +12 по сезону 1030.3 1027.2
22 18.09 В 3 30 км н/о +11.9 +7.2 73 +11 +11 по сезону 1030.7 1027.6
23 18.09 В 1 27 км н/о +11.6 +7.5 76 +12 +12 по сезону 1030.9 1027.9
00 19.09 СВ 1 27 км н/о +11.8 +7.7 76 +13 +13 по сезону 1031.1 1028.0
01 19.09 С 1 23 км н/о +10.8 +7.2 78 +11 +11 тепло 1031.1 1028.0
02 19.09 С 1 23 км н/о +9.8 +7.4 85 +9 +9 по сезону 1030.9 1027.8
03 19.09 СЗ 1 23 км н/о +9.2 +7.1 87 +9 +9 по сезону 1030.9 1027.8
04 19.09 СЗ 1 23 км н/о +8.8 +7.1 89 +8 +8 по сезону 1031.0 1027.9
05 19.09 СЗ 1 22 км н/о +8.3 +6.7 90 +7 +7 по сезону 1030.9 1027.8
06 19.09 С 1 20 км н/о +8.3 +7.1 92 +8 +8 прохладно 1031.3 1028.2 +7.9
07 19.09 С 1 18 км н/о +9.6 +8.1 90 +10 +10 по сезону 1031.7 1028.6
08 19.09 СВ 2 17 км н/о +11.9 +8.0 77 +11 +11 по сезону 1032.3 1029.2
09 19.09 З 1 23 км н/о +15.4 +8.8 65 +16 +16 тепло 1032.3 1029.3
10 19.09 В 1 29 км н/о +18.4 +8.8 54 +20 +20 тепло 1032.1 1029.1
11 19.09 В 2 30 км н/о +19.1 +7.7 48 +20 +20 тепло 1031.9 1028.9
12 19.09 СВ 2 29 км н/о +20.4 +8.2 45 +22 +22 комфорт 1031.6 1028.6
13 19.09 СВ 2 30 км н/о +20.5 +8.4 46 +22 +22 комфорт 1030.9 1027.9
14 19.09 В 2 35 км н/о +21.4 +8.0 42 +22 +22 комфорт 1030.4 1027.4
15 19.09 СВ 3 35 км н/о +21.8 +8.0 41 +23 +23 комфорт 1029.9 1026.9
16 19.09 СВ 2 35 км н/о +21.6 +8.3 42 +23 +23 комфорт 1029.7 1026.7
17 19.09 В 3 40 км н/о +20.8 +8.4 45 +23 +23 комфорт 1029.3 1026.3
18 19.09 В 6 40 км н/о +17.8 +7.8 52 +17 +17 тепло 1029.7 1026.6 +22.2
19 19.09 В 4 50 км н/о +16.3 +7.5 56 +16 +16 тепло 1030.1 1027.1
20 19.09 В 4 50 км н/о +14.7 +7.3 61 +14 +14 по сезону 1030.2 1027.2
21 19.09 В 3 40 км н/о +13.9 +7.4 65 +13 +13 по сезону 1030.4 1027.3
22 19.09 В 2 35 км н/о +13.2 +7.7 69 +13 +13 тепло 1030.2 1027.2
23 19.09 В 2 35 км н/о +12.6 +8.2 75 +12 +12 по сезону 1030.4 1027.4
00 20.09 СВ 1 30 км н/о +12.2 +8.8 80 +12 +12 по сезону 1030.1 1027.1
01 20.09 СВ 1 29 км н/о +11.1 +8.8 86 +11 +11 тепло 1030.0 1026.9
02 20.09 СВ 2 20 км н/о +11.7 +9.8 88 +11 +11 по сезону 1029.5 1026.4
03 20.09 СВ 2 21 км н/о +10.9 +8.9 87 +10 +10 по сезону 1029.0 1025.9
04 20.09 СВ 1 13 км н/о +10.2 +8.8 91 +10 +10 тепло 1028.5 1025.4
05 20.09 СВ 1 12 км н/о +10.4 +9.6 95 +10 +10 по сезону 1027.9 1024.8
06 20.09 СВ 2 12 км н/о +10.0 +9.1 94 +9 +9 по сезону 1027.9 1024.8 +9.3
07 20.09 СВ 2 12 км н/о +12.0 +10.3 89 +11 +11 по сезону 1028.1 1025.0
08 20.09 В 3 14 км н/о +14.8 +10.4 75 +14 +14 по сезону 1028.0 1025.0
09 20.09 В 6 24 км н/о +17.2 +7.7 54 +16 +16 тепло 1027.6 1024.6
10 20.09 ЮВ 7 40 км н/о +19.1 +7.1 46 +19 +19 тепло 1027.1 1024.1
11 20.09 В 7 40 км н/о +20.3 +6.7 41 +21 +21 комфорт 1026.2 1023.2
12 20.09 В 6 35 км н/о +21.1 +7.3 41 +22 +22 комфорт 1025.4 1022.5
13 20.09 В 6 35 км н/о +22.0 +7.4 39 +23 +23 комфорт 1024.6 1021.6
14 20.09 В 5 35 км н/о +21.6 +7.5 40 +23 +23 комфорт 1023.8 1020.9
15 20.09 В 7 35 км н/о +21.0 +6.0 38 +22 +22 комфорт 1022.9 1020.0
16 20.09 В 7 26 км н/о +20.1 +6.0 40 +20 +20 тепло 1022.1 1019.1
17 20.09 В 6 30 км н/о +18.2 +6.4 46 +18 +18 тепло 1021.8 1018.8
18 20.09 В 6 28 км н/о +16.6 +8.1 57 +16 +16 по сезону 1021.1 1018.1 +22.4
19 20.09 В 4 26 км н/о +15.5 +8.7 64 +15 +15 тепло 1020.6 1017.6
20 20.09 В 5 26 км н/о +15.1 +9.7 70 +14 +14 по сезону 1020.3 1017.3
21 20.09 В 5 23 км н/о +14.8 +10.3 74 +13 +13 по сезону 1020.2 1017.2
22 20.09 В 5 22 км н/о +14.7 +10.2 74 +13 +13 тепло 1019.6 1016.6
23 20.09 В 4 24 км н/о +14.4 +9.6 73 +13 +13 тепло 1019.0 1016.0
00 21.09 В 4 27 км н/о +14.7 +9.0 69 +14 +14 тепло 1018.3 1015.3
01 21.09 В 3 30 км н/о +14.2 +7.4 64 +13 +13 тепло 1017.8 1014.8
02 21.09 В 3 30 км н/о +13.8 +6.6 62 +13 +13 тепло 1016.9 1013.9
03 21.09 В 3 30 км н/о +12.8 +6.0 63 +12 +12 по сезону 1016.3 1013.3
04 21.09 В 3 30 км н/о +12.3 +6.1 66 +11 +11 тепло 1015.6 1012.6
05 21.09 В 3 35 км н/о +12.4 +6.0 65 +11 +11 по сезону 1015.3 1012.2
06 21.09 В 3 35 км н/о +12.5 +6.1 65 +11 +11 по сезону 1015.1 1012.0 +11.8
07 21.09 В 4 35 км н/о +13.6 +6.6 63 +12 +12 по сезону 1014.9 1011.8
08 21.09 В 5 35 км н/о +15.4 +7.0 57 +14 +14 по сезону 1014.6 1011.6
09 21.09 В 5 35 км н/о +17.5 +7.3 51 +17 +17 тепло 1014.1 1011.1
10 21.09 В 5 40 км н/о +19.9 +7.9 46 +21 +21 комфорт 1013.6 1010.6
11 21.09 В 5 35 км н/о +21.5 +7.7 41 +22 +22 комфорт 1012.8 1009.8
12 21.09 В 6 35 км н/о +24.0 +8.4 37 +25 +25 комфорт 1011.8 1008.9
13 21.09 В 6 35 км н/о +25.0 +8.3 35 +25 +25 комфорт 1010.8 1007.9
14 21.09 ЮВ 7 40 км н/о +26.0 +8.4 33 +26 +26 жарко 1010.3 1007.4
15 21.09 В 6 40 км н/о +26.3 +8.5 32 +26 +26 жарко 1009.7 1006.8
16 21.09 В 6 35 км н/о +25.3 +8.9 35 +26 +26 жарко 1009.1 1006.2
17 21.09 В 4 28 км н/о +22.7 +9.7 44 +24 +24 комфорт 1009.0 1006.1
18 21.09 В 5 27 км н/о +20.0 +10.3 54 +21 +21 комфорт 1008.6 1005.7 +26.4
19 21.09 В 2 24 км н/о +18.8 +10.6 59 +20 +20 тепло 1008.4 1005.4
20 21.09 В 3 23 км н/о +18.7 +10.8 60 +20 +20 тепло 1008.1 1005.1
21 21.09 В 3 22 км н/о +17.8 +12.1 69 +18 +18 тепло 1007.7 1004.7
22 21.09 В 3 21 км н/о +17.4 +12.6 73 +17 +17 тепло 1007.0 1004.1
23 21.09 В 2 24 км н/о +17.6 +12.8 73 +18 +18 тепло 1006.5 1003.6
00 22.09 В 3 23 км н/о +18.0 +13.0 73 +18 +18 тепло 1005.9 1003.0
01 22.09 В 2 24 км н/о +18.1 +13.2 73 +19 +19 тепло 1005.4 1002.5
02 22.09 В 2 26 км н/о +17.5 +12.7 73 +18 +18 тепло 1004.7 1001.7
03 22.09 СВ 2 25 км н/о +18.2 +13.2 73 +19 +19 тепло 1003.8 1000.9
04 22.09 В 2 25 км н/о +17.6 +13.1 75 +18 +18 тепло 1003.6 1000.6
05 22.09 ЮВ 2 29 км в посл. час дождь н/о +18.5 +13.6 73 +20 +20 тепло 1003.2 1000.3
06 22.09 Ю 3 22 км слаб. ливневой дождь н/о +18.3 +14.8 80 +19 +19 тепло 1003.1 1000.2 +17.3 0.0
07 22.09 ЮВ 4 23 км в посл. час дождь н/о +18.1 +15.5 85 +18 +18 тепло 1003.1 1000.1
08 22.09 ЮВ 4 22 км в посл. час дождь н/о +18.6 +16.3 86 +19 +19 тепло 1002.8 999.9
09 22.09 Ю 4 25 км н/о +20.8 +16.8 78 +25 +25 комфорт 1002.8 999.9
10 22.09 ЮВ 5 22 км н/о +21.8 +16.8 73 +26 +26 душно 1002.6 999.7
11 22.09 Ю 5 27 км н/о +21.5 +16.0 71 +25 +25 комфорт 1002.7 999.8
12 22.09 ЮЗ 5 3500 м ливневой дождь н/о +16.6 +15.6 94 +16 +16 по сезону 1003.5 1000.6 1
13 22.09 ЮЗ 3 30 км в посл. час дождь н/о +17.5 +15.7 89 +17 +17 тепло 1003.8 1000.9
14 22.09 Ю 6 23 км в посл. час дождь н/о +17.8 +15.2 85 +17 +17 тепло 1004.3 1001.4
15 22.09 ЮЗ 4 30 км в посл. час дождь н/о +17.4 +15.7 90 +17 +17 по сезону 1004.4 1001.4
16 22.09 ЮЗ 3 29 км н/о +17.8 +14.7 82 +18 +18 тепло 1004.4 1001.4
17 22.09 Ю 5 29 км н/о +17.8 +14.4 80 +17 +17 тепло 1004.6 1001.6
18 22.09 Ю 4 25 км н/о +17.5 +14.4 82 +17 +17 тепло 1004.7 1001.8 +23.9 2
19 22.09 Ю 4 25 км н/о +16.8 +13.1 79 +16 +16 тепло 1005.5 1002.5
20 22.09 Ю 4 28 км н/о +16.4 +12.2 76 +16 +16 тепло 1005.7 1002.7
21 22.09 Ю 3 25 км н/о +15.5 +12.4 82 +15 +15 по сезону 1006.2 1003.2
22 22.09 Ю 3 21 км н/о +15.2 +12.8 86 +14 +14 тепло 1006.6 1003.6
23 22.09 Ю 3 21 км н/о +14.3 +12.7 90 +13 +13 тепло 1007.0 1004.0
00 23.09 Ю 3 24 км н/о +14.1 +12.6 91 +13 +13 по сезону 1007.2 1004.2
01 23.09 Ю 3 22 км н/о +14.0 +12.8 92 +13 +13 тепло 1007.7 1004.7
02 23.09 Ю 3 29 км н/о +14.0 +12.7 92 +13 +13 тепло 1008.0 1005.0
03 23.09 ЮЗ 4 35 км н/о +14.3 +12.8 91 +13 +13 тепло 1008.5 1005.5
04 23.09 ЮЗ 5 40 км н/о +14.6 +12.6 88 +13 +13 тепло 1009.0 1006.0
05 23.09 ЮЗ 5 29 км н/о +14.3 +12.3 88 +13 +13 тепло 1009.5 1006.5
06 23.09 ЮЗ 5 14 км н/о +14.0 +11.9 87 +12 +12 по сезону 1010.2 1007.2 +13.8
07 23.09 ЮЗ 4 14 км н/о +13.7 +11.5 87 +12 +12 по сезону 1010.8 1007.8
08 23.09 ЮЗ 4 15 км н/о +15.0 +11.4 79 +14 +14 по сезону 1011.6 1008.6
09 23.09 ЮЗ 4 21 км н/о +17.3 +11.5 69 +17 +17 тепло 1011.7 1008.7
10 23.09 ЮЗ 4 22 км н/о +18.0 +11.2 64 +18 +18 тепло 1011.8 1008.8
11 23.09 ЮЗ 5 9000 м морось с дождем н/о +16.6 +12.7 78 +16 +16 по сезону 1011.4 1008.5
12 23.09 ЮЗ 4 25 км в посл. час дождь н/о +19.0 +12.5 66 +20 +20 тепло 1011.2 1008.3 0.0
13 23.09 Ю 6 23 км в посл. час дождь н/о +19.0 +12.6 66 +19 +19 тепло 1011.0 1008.1
14 23.09 Ю 6 24 км в посл. час дождь н/о +18.2 +12.2 68 +18 +18 тепло 1010.8 1007.8
15 23.09 Ю 7 15 км слаб. морось с дождем н/о +18.0 +12.9 72 +17 +17 по сезону 1010.5 1007.6
16 23.09 Ю 6 16 км дождь н/о +16.1 +14.4 90 +15 +15 по сезону 1010.3 1007.4
17 23.09 Ю 7 22 км слаб. дождь н/о +15.8 +14.4 91 +14 +14 по сезону 1009.8 1006.9
18 23.09 Ю 7 21 км в посл. час дождь н/о +15.6 +13.3 86 +14 +14 по сезону 1009.5 1006.5 +20.1 1
19 23.09 Ю 6 30 км н/о +15.4 +13.4 88 +14 +14 тепло 1009.5 1006.5

 

Местоположение метеостанции Лондон (Великобритания): широта 51.48 долгота -0.45 высота над уровнем моря 25 м.

В архиве по умолчанию представлена погода в Лондоне за последнюю неделю. Архивные данные за месяц целиком и за предыдущие месяцы, начиная с января 2011 года, Вы можете получить, выбрав интересующий диапазон дат из раскрывающегося списка и нажав кнопку "Ввод!".


*Определитесь, кто Вы:
робот инопланетянин человек

Внимание! Время в таблицах - всемирное. Для получения местного времени необходимо прибавить поправку, которая равна 0 ч.

Смотрите также архив погоды в соседних городах и на ближайших метеорологических станциях:

Погода в Норхолте (Великобритания) (8 км)
Погода в Лондоне (Великобритания) (23 км)
Погода в Чарлвуде (Великобритания) (28 км)
Погода в Фарнборо (Великобритания) (31 км)
Погода на Аэродроме Кенли (Великобритания) (33 км)
Погода в Хай-Уикоме (Великобритания) (33 км)
Погода в Одихеме (Великобритания) (44 км)
Погода в Бенсоне (Великобритания) (46 км)
Погода в Грейвзенде (Великобритания) (52 км)
Погода в Ротамстеде (Великобритания) (66 км)

Пояснения к столбцам:

Ветер - указаны скорость ветра в м/с - средняя за 10 мин, порывы в срок и между сроками (в фигурных скобках) и направление, откуда дует ветер: С - северный, СВ - северо-восточный, В - восточный, ЮВ - юго-восточный, Ю - южный, ЮЗ - юго-западный, З - западный, СЗ - северо-западный.
Видимость - горизонтальная дальность видимости в метрах или километрах. При видимости от 1 до 10 км при отсутствии осадков обычно наблюдается дымка, при ухудшении видимости до 1 км и менее - туман. В сухую погоду видимость может ухудшаться дымом, пылью или мглою.
Явления - указаны атмосферные явления, наблюдавшиеся в срок или в последний час перед сроком; фигурными скобками обозначены явления, наблюдавшиеся между сроками (за 1-3 часа до срока); квадратными скобками обозначены град или гололедные отложения с указанием их диаметра в мм.
Облачность - указаны через наклонную черту общая и нижняя облачность в баллах и высота нижней границы облаков в метрах; квадратными скобками обозначены формы облаков: Ci - перистые, Cs - перисто-слоистые, Cc - перисто-кучевые, Ac - высококучевые, As - высокослоистые, Sc - слоисто-кучевые, Ns - слоисто-дождевые, Cu - кучевые, Cb - кучево-дождевые. Подробнее классификацию облаков см. в Атласе облаков (PDF).
T - Температура воздуха - температура, измеренная на высоте 2 м над землей.
Td - Температура точки росы - температура, при понижении до которой содержащийся в воздухе водяной пар достигнет насыщения.
f - Относительная влажность воздуха - влажноcть воздуха, измеренная на высоте 2 м над землей.
Te - Эффективная температура - температура, которую ощущает одетый по сезону человек в тени. Характеристика душности погоды. При расчете учитывается влияние влажности воздуха и скорости ветра на теплоощущения человека.
Tes - Эффективная температура на солнце - температура, которую ощущает человек, с поправкой на солнечный нагрев. Характеристика знойности погоды. Зависит от высоты солнца над горизонтом, облачности и скорости ветра. Ночью, в пасмурную погоду, а также при ветре 12 м/с и более поправка равна нулю.
P - Атмосферное давление - приведенное к уровню моря атмосферное давление.
Po - Атмосферное давление - измеренное на уровне метеостанции атмосферное давление.
Tmin - Минимальная температура - минимум температуры воздуха на высоте 2 м над землей.
Tmax - Максимальная температура - максимум температуры воздуха на высоте 2 м над землей.
R - Количество осадков - Количество выпавших осадков за период времени, мм. При наведении курсора мыши на число - период времени, за который выпало указанное количество осадков.
R24 - Количество осадков - Количество выпавших осадков за 24 часа, мм.
S - Снежный покров - Высота снежного покрова, см. При наведении курсора мыши на число - состояние снежного покрова и степень покрытия местности в баллах.